This demonstration page uses our WeatherBlox Daily Observations layout. Learn more.

36.17497, -115.13722

Hourly Observations for February 25, 2020

Temp ( °F °C ) Dew Point ( °F °C ) Humidity (%) Winds ( mph kmh ) Pressure ( in mb ) Visibility ( mi km ) Precip ( " mm )
12:53 am 00:53 Clear 57 13.9 13 -10.6 17 17 N 10 17 30.25 1024 10 16.0934 0 0
1:53 am 01:53 Clear 54 12.2 13 -10.6 19 19 NNW 9 15 30.26 1025 10 16.0934 0 0
2:53 am 02:53 Clear 54 12.2 10 -12.2 17 17 NNW 10 17 30.25 1024 10 16.0934 0 0
3:53 am 03:53 Clear 54 12.2 10 -12.2 17 17 N 13 20 30.26 1025 10 16.0934 0 0
4:53 am 04:53 Clear 54 12.2 9 -12.8 16 16 N 12 19 30.29 1026 10 16.0934 0 0
5:53 am 05:53 Clear 49 9.4 13 -10.6 23 23 NE 10 17 30.33 1027 10 16.0934 0 0
6:53 am 06:53 Sunny 51 10.6 10 -12.2 19 19 N 13 20 30.37 1028 10 16.0934 0 0
7:28 am 07:28 Sunny 52 11.1 10 -12.2 18 18 ENE 15 24 30.37 1028 10 16.0934 0 0
7:53 am 07:53 Sunny 51 10.6 12 -11.1 21 21 ENE 10 17 30.43 1030 10 16.0934 0 0
8:53 am 08:53 Sunny 52 11.1 14 -10 22 22 E 23 37 30.45 1031 10 16.0934 0 0
9:53 am 09:53 Sunny 54 12.2 15 -9.4 21 21 E 22 35 30.46 1032 10 16.0934 0 0
10:53 am 10:53 Sunny 56 13.3 15 -9.4 20 20 NE 18 30 30.47 1032 10 16.0934 0 0
11:53 am 11:53 Sunny 57 13.9 16 -8.9 20 20 E 16 26 30.46 1031 10 16.0934 0 0
12:53 pm 12:53 Sunny 58 14.4 16 -8.9 19 19 ENE 18 30 30.44 1031 10 16.0934 0 0
1:53 pm 13:53 Sunny 59 15 15 -9.4 18 18 ENE 18 30 30.42 1030 10 16.0934 0 0
2:53 pm 14:53 Sunny 59 15 16 -8.9 18 18 E 13 20 30.42 1030 10 16.0934 0 0
3:53 pm 15:53 Sunny 58 14.4 16 -8.9 19 19 E 15 24 30.42 1030 10 16.0934 0 0
4:53 pm 16:53 Sunny 57 13.9 16 -8.9 20 20 ENE 13 20 30.42 1030 10 16.0934 0 0
5:53 pm 17:53 Clear 55 12.8 16 -8.9 21 21 ENE 10 17 30.45 1031 10 16.0934 0 0
6:53 pm 18:53 Clear 53 11.7 15 -9.4 22 22 E 7 11 30.48 1032 10 16.0934 0 0
7:53 pm 19:53 Clear 52 11.1 15 -9.4 23 23 ESE 3 6 30.5 1033 10 16.0934 0 0
8:53 pm 20:53 Clear 50 10 15 -9.4 25 25 E 6 9 30.51 1033 10 16.0934 0 0
9:53 pm 21:53 Clear 50 10 15 -9.4 25 25 S 3 6 30.53 1034 10 16.0934 0 0
10:53 pm 22:53 Clear 48 8.9 17 -8.3 29 29 WSW 6 9 30.53 1034 10 16.0934 0 0
11:53 pm 23:53 Clear 48 8.9 17 -8.3 29 29 SSW 6 9 30.53 1034 10 16.0934 0 0

Powered by AerisWeather